Wappingers Falls, NY

11:40 AM EST on February 25, 2017 (GMT -0500)
Dutchess County

Weather History for KPOU - July, 2012

Change the Weather History Date:

Tuesday, July 17, 2012

  Actual Average Record
Temperature  
Mean Temperature 82 °F 73 °F  
Max Temperature 96 °F 85 °F 98 °F (2006)
Min Temperature 68 °F 61 °F 45 °F (1954)
Degree Days  
Heating Degree Days 0 0  
Month to date heating degree days 0 0  
Since 1 June heating degree days 31 49  
Since 1 July heating degree days 0 0  
Cooling Degree Days 17 8  
Month to date cooling degree days 205 128  
Year to date cooling degree days 438 291  
Since 1 June cooling degree days 343 255  
Growing Degree Days 32 (Base 50)    
Moisture  
Dew Point 66 °F    
Average Humidity 65    
Maximum Humidity 93    
Minimum Humidity 36    
Precipitation  
Precipitation T in 0.16 in 0.61 in (2009)
Month to date precipitation 1.24 2.42  
Year to date precipitation 15.76 24.35  
Sea Level Pressure  
Sea Level Pressure 29.76 in    
Wind  
Wind Speed 6 mph (SSW)    
Max Wind Speed 16 mph    
Max Gust Speed 24 mph    
Visibility 9 miles    
Events      
T = Trace of Precipitation, MM = Missing Value Source: NWS Daily Summary

Daily Weather History Graph

Daily Weather History Graph

Search for Another Location

Airport or City:

Trip Planner

Search our weather history database for the weather conditions in past years. The results will help you decide how hot, cold, wet, or windy it might be!

Date:

Astronomy

Jul. 17, 2012 Rise Set
Actual Time 5:36 AM EDT 8:26 PM EDT
Civil Twilight 5:03 AM EDT 8:59 PM EDT
Nautical Twilight 4:22 AM EDT 9:40 PM EDT
Astronomical Twilight 3:34 AM EDT 10:28 PM EDT
Moon 4:10 AM EDT (7/17) 7:14 PM EDT (7/17)
Length of Visible Light 15h 55m
Length of Day
14h 50m
Waning Crescent, 2% of the Moon is Illuminated
Jul 17
Waning Crescent
Jul 19
New
Jul 26
First Quarter
Aug 1
Full
Aug 9
Last Quarter

Hourly Weather History & Observations

Time (EDT) Temp. Heat Index Dew Point Humidity Pressure Visibility Wind Dir Wind Speed Gust Speed Precip Events Conditions
12:53 AM 71.1 °F - 69.1 °F 93% 29.81 in 5.0 mi Calm Calm - N/A   Clear
1:53 AM 71.1 °F - 68.0 °F 90% 29.81 in 6.0 mi Calm Calm - N/A   Clear
2:53 AM 70.0 °F - 66.9 °F 90% 29.82 in 5.0 mi Calm Calm - N/A   Clear
3:53 AM 69.1 °F - 66.0 °F 90% 29.80 in 6.0 mi Calm Calm - N/A   Clear
4:53 AM 68.0 °F - 66.0 °F 93% 29.81 in 5.0 mi Calm Calm - N/A   Clear
5:53 AM 69.1 °F - 66.0 °F 90% 29.81 in 8.0 mi SE 3.5 mph - N/A   Clear
6:53 AM 71.1 °F - 66.0 °F 84% 29.81 in 8.0 mi Calm Calm - N/A   Clear
7:53 AM 75.0 °F - 66.0 °F 73% 29.81 in 10.0 mi South 4.6 mph - N/A   Clear
8:53 AM 79.0 °F - 64.9 °F 62% 29.81 in 10.0 mi South 6.9 mph - N/A   Clear
9:53 AM 84.0 °F 85.8 °F 64.9 °F 53% 29.80 in 10.0 mi SW 9.2 mph - N/A   Clear
10:53 AM 84.9 °F 85.9 °F 63.0 °F 48% 29.79 in 10.0 mi SW 9.2 mph - N/A   Clear
11:53 AM 89.1 °F 90.3 °F 64.0 °F 43% 29.78 in 10.0 mi SW 6.9 mph - N/A   Clear
12:53 PM 89.1 °F 90.3 °F 64.0 °F 43% 29.76 in 10.0 mi WSW 10.4 mph - N/A   Clear
1:53 PM 91.9 °F 94.1 °F 64.9 °F 41% 29.75 in 10.0 mi SW 9.2 mph 17.3 mph 0.00 in   Clear
2:53 PM 93.9 °F 96.1 °F 64.9 °F 38% 29.73 in 10.0 mi SW 13.8 mph 18.4 mph N/A   Clear
3:53 PM 95.0 °F 97.4 °F 64.9 °F 37% 29.70 in 10.0 mi SSW 9.2 mph - N/A   Clear
4:53 PM 93.9 °F 97.5 °F 66.9 °F 41% 29.68 in 10.0 mi South 6.9 mph - N/A   Clear
5:53 PM 95.0 °F 97.9 °F 66.0 °F 38% 29.68 in 10.0 mi SW 10.4 mph - N/A   Clear
6:53 PM 91.9 °F 95.4 °F 66.9 °F 44% 29.69 in 10.0 mi SSW 8.1 mph - N/A   Clear
7:53 PM 89.1 °F 93.7 °F 69.1 °F 52% 29.70 in 10.0 mi SSW 4.6 mph - N/A   Clear
8:53 PM 88.0 °F 91.4 °F 68.0 °F 51% 29.70 in 10.0 mi South 4.6 mph - N/A   Clear
9:53 PM 87.1 °F 90.6 °F 68.0 °F 53% 29.72 in 10.0 mi SSW 3.5 mph - N/A   Clear
10:53 PM 86.0 °F 89.4 °F 68.0 °F 55% 29.72 in 10.0 mi SW 5.8 mph - N/A   Clear
11:53 PM 84.0 °F 87.8 °F 69.1 °F 61% 29.75 in 10.0 mi SW 3.5 mph - N/A   Clear